"Pseudo-MPEC" for SWC0580

Created 2024 May 21 18:22:07 UT using Find_Orb

Click here for an explanation of pseudo-MPECs

 
 Astrometry: 
     SWC0580*KB2024 05 150JyB?0AstrometryJGMkh@j%.tE7y/redacted;wCclickA26d4]Y05
     SWC0580 KB2024 05 156U_Z^ChereyHGGP8iJ\IYVnpU$nRyZh=H%S$dT8Q7Kx8forUk\%MY05
     SWC0580 KB2024 05 15+^*S/91WF1k4N9n\=Xj/[AG`s9odutl3vZBiexplanationEy5VjY05

Station data:
(Y05) SONEAR Wykrota-CEAMIG, Serra da Piedade  (S19.824251 W43.690000)
   Brazil.  Observer C. Jacques. 0.45-m f/2.9 reflector + CMO.

Orbital elements:  SWC0580
   Perihelion 2024 Mar 15.93587 +/- 46.3 TT = 22:27:39 (JD 2460385.43587)
Epoch 2024 May 15.0 TT = JDT 2460445.5   Earth MOID: 0.0180   Ju: 0.2442
M   3.76658415 +/- 18               Ma: 0.0301   Sa: 0.6574      AutoNEOCP
n   0.06270937 +/- 0.154            Peri.  286.76700 +/- 60
a   6.27452804 +/- 10.3             Node   229.51577 +/- 19
e   0.8667707 +/- 0.249             Incl.    2.63714 +/- 1.5
P  15.72                   H 22.11  G  0.15   U 11.5  SR
q 0.83595051 +/- 0.347    Q 11.7131055 +/- 76.1           (J2000 ecliptic)
From 3 observations 2024 May 15 (41.5 min); mean residual 0".31
Residuals in arcseconds: 
240515 Y05  .30-  .01-    240515 Y05  .62+  .03+    240515 Y05  .32-  .02-    

Ephemerides (geocentric):
Date (UTC) HH   RA             Dec           delta  r     elong  mag " sig PA
---- --------  ------------   ------------  ------ ------ -----  --- --------
2024 05 21 18  15 05 56.714   -16 02 51.77  .37301 1.3789 167.7 21.3  36d  93
2024 05 21 19  15 05 57.815   -16 02 44.67  .37354 1.3794 167.6 21.3  36d  93
2024 05 21 20  15 05 58.916   -16 02 37.60  .37406 1.3799 167.6 21.3  36d  93
2024 05 21 21  15 06 00.016   -16 02 30.56  .37459 1.3804 167.5 21.3  36d  93
2024 05 21 22  15 06 01.115   -16 02 23.55  .37512 1.3809 167.5 21.3  36d  93
2024 05 21 23  15 06 02.214   -16 02 16.58  .37565 1.3814 167.5 21.3  36d  93
2024 05 22 00  15 06 03.311   -16 02 09.63  .37618 1.3818 167.4 21.3  36d  93
2024 05 22 01  15 06 04.408   -16 02 02.73  .37671 1.3823 167.4 21.3  36d  93
2024 05 22 02  15 06 05.504   -16 01 55.85  .37724 1.3828 167.4 21.3  36d  93
2024 05 22 03  15 06 06.600   -16 01 49.01  .37776 1.3833 167.3 21.3  36d  93
2024 05 22 04  15 06 07.694   -16 01 42.20  .37829 1.3838 167.3 21.3  36d  93
2024 05 22 05  15 06 08.788   -16 01 35.42  .37882 1.3843 167.3 21.3  36d  93
2024 05 22 06  15 06 09.881   -16 01 28.67  .37935 1.3848 167.2 21.3  36d  94
2024 05 22 07  15 06 10.974   -16 01 21.96  .37988 1.3853 167.2 21.3  36d  94
2024 05 22 08  15 06 12.066   -16 01 15.28  .38041 1.3858 167.1 21.3  36d  94
2024 05 22 09  15 06 13.157   -16 01 08.62  .38095 1.3863 167.1 21.3  36d  94
2024 05 22 10  15 06 14.247   -16 01 02.01  .38148 1.3868 167.1 21.4  36d  94
2024 05 22 11  15 06 15.337   -16 00 55.42  .38201 1.3873 167.0 21.4  36d  94
2024 05 22 12  15 06 16.426   -16 00 48.87  .38254 1.3877 167.0 21.4  37d  94
2024 05 22 13  15 06 17.515   -16 00 42.34  .38307 1.3882 167.0 21.4  37d  94
2024 05 22 14  15 06 18.602   -16 00 35.85  .38360 1.3887 166.9 21.4  37d  94
2024 05 22 15  15 06 19.690   -16 00 29.39  .38413 1.3892 166.9 21.4  37d  94
2024 05 22 16  15 06 20.776   -16 00 22.96  .38467 1.3897 166.9 21.4  37d  94
2024 05 22 17  15 06 21.862   -16 00 16.56  .38520 1.3902 166.8 21.4  37d  94
2024 05 22 18  15 06 22.948   -16 00 10.20  .38573 1.3907 166.8 21.4  37d  95
2024 05 22 19  15 06 24.032   -16 00 03.86  .38626 1.3912 166.7 21.4  38d  95
2024 05 22 20  15 06 25.116   -15 59 57.56  .38680 1.3917 166.7 21.4  38d  95
2024 05 22 21  15 06 26.200   -15 59 51.29  .38733 1.3922 166.7 21.4  38d  95
2024 05 22 22  15 06 27.283   -15 59 45.04  .38786 1.3927 166.6 21.4  38d  95
2024 05 22 23  15 06 28.365   -15 59 38.83  .38840 1.3932 166.6 21.4  38d  95
2024 05 23 00  15 06 29.447   -15 59 32.65  .38893 1.3937 166.6 21.4  38d  95
2024 05 23 01  15 06 30.529   -15 59 26.50  .38947 1.3941 166.5 21.4  39d  95
2024 05 23 02  15 06 31.610   -15 59 20.38  .39000 1.3946 166.5 21.4  39d  95
2024 05 23 03  15 06 32.690   -15 59 14.29  .39053 1.3951 166.5 21.4  39d  95
2024 05 23 04  15 06 33.770   -15 59 08.24  .39107 1.3956 166.4 21.4  39d  95
2024 05 23 05  15 06 34.849   -15 59 02.21  .39160 1.3961 166.4 21.4  39d  95
2024 05 23 06  15 06 35.928   -15 58 56.21  .39214 1.3966 166.3 21.4  39d  95
2024 05 23 07  15 06 37.006   -15 58 50.24  .39268 1.3971 166.3 21.4  39d  95
2024 05 23 08  15 06 38.083   -15 58 44.30  .39321 1.3976 166.3 21.5  39d  95
2024 05 23 09  15 06 39.161   -15 58 38.40  .39375 1.3981 166.2 21.5  39d  95
2024 05 23 10  15 06 40.238   -15 58 32.52  .39428 1.3986 166.2 21.5  39d  95
2024 05 23 11  15 06 41.314   -15 58 26.67  .39482 1.3991 166.2 21.5  40d  95
2024 05 23 12  15 06 42.390   -15 58 20.85  .39536 1.3996 166.1 21.5  40d  95
2024 05 23 13  15 06 43.465   -15 58 15.06  .39589 1.4001 166.1 21.5  40d  95
2024 05 23 14  15 06 44.540   -15 58 09.30  .39643 1.4006 166.1 21.5  40d  95
2024 05 23 15  15 06 45.615   -15 58 03.57  .39697 1.4010 166.0 21.5  40d  95
2024 05 23 16  15 06 46.689   -15 57 57.87  .39751 1.4015 166.0 21.5  40d  95
2024 05 23 17  15 06 47.762   -15 57 52.20  .39804 1.4020 165.9 21.5  40d  95